Date_and_time,latitude,longitude,wind_speed,RelWindDirFrom,WindDirFrom,air_pressure,air_temperature,relative_humidity,Temp,platform_speed_wrt_ground,air_pressure_at_mean_sea_level,platform_orientation
2019-08-09 23:30,50.6304366666667,-96.98077,8.1,9.9,98,985.07,24.3,55,22.24,0.0,1010.58,90.0
2019-08-09 23:40,50.6304533333333,-96.98078,7.9,9.0,101,985.03,24.1,57,22.23,0.0,1010.54,90.0
2019-08-09 23:50,50.6304533333333,-96.9807766666667,7.2,8.8,102,984.99,24.1,57,22.26,0.0,1010.50,90.0
2019-08-10 00:00,50.630455,-96.9807766666667,7.8,11.3,115,984.96,23.9,59,22.27,0.0,1010.47,90.0
2019-08-10 00:10,50.630455,-96.9807783333333,9.2,11.2,118,984.91,23.7,60,22.29,0.0,1010.44,90.0
2019-08-10 00:20,50.6304566666667,-96.98078,8.0,10.3,121,984.93,23.6,60,22.31,0.0,1010.45,90.0
2019-08-10 00:30,50.6304566666667,-96.98078,8.6,10.9,120,984.90,23.7,59,22.32,0.0,1010.41,90.0
2019-08-10 00:40,50.630445,-96.980825,7.8,9.6,121,984.95,23.7,60,22.32,0.0,1010.46,90.0
2019-08-10 00:50,50.63045,-96.980785,7.1,9.6,123,984.92,23.7,59,22.31,0.0,1010.43,90.0
2019-08-10 01:00,50.6304533333333,-96.980775,7.6,9.7,122,984.91,23.7,60,22.32,0.0,1010.42,360.0
2019-08-10 01:10,50.6304616666667,-96.9807816666667,8.1,9.4,118,984.84,23.6,61,22.34,0.0,1010.35,360.0
2019-08-10 01:20,50.6304533333333,-96.9807783333333,8.5,9.9,122,984.76,23.5,60,22.35,0.0,1010.27,360.0
2019-08-10 01:30,50.6304583333333,-96.9807733333333,7.5,8.8,123,984.75,23.5,59,22.34,0.0,1010.27,360.0
2019-08-10 01:40,50.6304583333333,-96.980775,5.1,8.4,135,984.77,23.4,57,22.34,0.0,1010.30,360.0
2019-08-10 01:50,50.6304583333333,-96.9807766666667,4.5,7.8,173,984.72,23.3,46,22.32,0.0,1010.26,360.0
2019-08-10 02:00,50.63046,-96.9807766666667,3.1,4.6,192,984.76,22.4,56,22.28,0.0,1010.35,3.2
2019-08-10 02:10,50.63046,-96.980775,2.6,4.8,193,984.77,22.2,55,22.29,0.0,1010.37,3.2
2019-08-10 02:20,50.63046,-96.9807633333333,2.5,3.8,188,984.74,21.9,55,22.28,0.0,1010.35,3.2
2019-08-10 02:30,50.6304616666667,-96.9807716666667,2.8,3.8,177,984.69,21.7,61,22.32,0.0,1010.31,3.2
2019-08-10 02:40,50.6304616666667,-96.9807766666667,3.1,4.2,171,984.70,21.4,63,22.32,0.0,1010.33,3.2
2019-08-10 02:50,50.6304633333333,-96.9807733333333,2.5,3.7,183,984.73,21.1,67,22.30,0.0,1010.38,3.2
2019-08-10 03:00,50.6304633333333,-96.980775,4.1,5.3,181,984.66,21.1,70,22.31,0.0,1010.31,360.0
2019-08-10 03:10,50.6304633333333,-96.9807766666667,4.2,5.4,183,984.64,21.1,65,22.30,0.0,1010.30,360.0
2019-08-10 03:20,50.6304516666667,-96.980765,5.0,6.2,182,984.66,21.3,60,22.30,0.0,1010.31,360.0
2019-08-10 03:30,50.6304633333333,-96.98077,5.8,7.2,176,984.59,21.1,58,22.30,0.0,1010.25,360.0
2019-08-10 03:40,50.630465,-96.98077,6.4,7.3,174,984.56,21.1,58,22.31,0.0,1010.23,360.0
2019-08-10 03:50,50.6304666666667,-96.98077,6.5,7.9,177,984.56,20.7,59,22.31,0.0,1010.27,360.0
2019-08-10 04:00,50.6304683333333,-96.9807716666667,6.3,7.8,179,984.52,20.4,58,22.30,0.0,1010.26,360.0
2019-08-10 04:10,50.6304666666667,-96.9807716666667,7.1,9.2,177,984.53,20.2,57,22.29,0.0,1010.29,360.0
2019-08-10 04:20,50.6304683333333,-96.9807716666667,6.8,9.1,180,984.49,20.1,55,22.28,0.0,1010.26,360.0
2019-08-10 04:30,50.6304666666667,-96.9807733333333,6.9,8.6,191,984.49,20.0,55,22.27,0.0,1010.28,360.0
2019-08-10 04:40,50.6304666666667,-96.9807733333333,7.5,10.0,195,984.57,20.0,53,22.27,0.0,1010.38,360.0
2019-08-10 04:50,50.630465,-96.9807733333333,7.9,10.1,196,984.57,20.0,53,22.27,0.0,1010.38,360.0
2019-08-10 05:00,50.6304483333333,-96.9807733333333,8.4,11.0,188,984.48,19.9,53,22.26,0.0,1010.29,360.0
2019-08-10 05:10,50.6304466666667,-96.98077,9.3,11.6,186,984.38,19.7,54,22.26,0.0,1010.18,360.0
2019-08-10 05:20,50.6304466666667,-96.980775,9.2,12.5,186,984.37,19.4,57,22.26,0.0,1010.20,360.0
2019-08-10 05:30,50.6304483333333,-96.980775,10.3,13.4,189,984.38,19.1,57,22.27,0.0,1010.22,360.0
2019-08-10 05:40,50.63045,-96.9807783333333,9.9,12.8,192,984.38,18.8,59,22.27,0.0,1010.25,360.0
2019-08-10 05:50,50.6304516666667,-96.9807783333333,9.2,11.8,197,984.40,18.8,59,22.27,0.0,1010.29,360.0
2019-08-10 06:00,50.6304516666667,-96.98078,8.3,10.1,199,984.39,18.8,59,22.26,0.0,1010.29,216.6
2019-08-10 06:10,50.6304516666667,-96.98078,7.9,10.2,202,984.46,18.6,59,22.24,0.0,1010.37,216.6
2019-08-10 06:20,50.6304516666667,-96.9807816666667,6.5,8.5,207,984.48,18.2,60,22.23,0.0,1010.41,216.6
2019-08-10 06:30,50.6304533333333,-96.9807816666667,6.2,8.1,208,984.41,18.0,60,22.21,0.0,1010.35,216.6
2019-08-10 06:40,50.6304533333333,-96.9807816666667,5.9,8.0,204,984.41,17.7,62,22.20,0.0,1010.36,216.6
2019-08-10 06:50,50.6304533333333,-96.9807833333333,5.9,7.4,206,984.46,17.6,61,22.18,0.0,1010.42,216.6
2019-08-10 07:00,50.630455,-96.9807833333333,5.5,7.4,209,984.52,17.5,61,22.17,0.0,1010.49,183.2
2019-08-10 07:10,50.6304666666667,-96.9808016666667,4.8,7.0,210,984.46,17.4,61,22.16,0.0,1010.46,183.2
2019-08-10 07:20,50.6304533333333,-96.9807916666667,5.2,6.9,210,984.44,17.1,63,22.15,0.0,1010.46,183.2
2019-08-10 07:30,50.63045,-96.9807866666667,5.0,6.5,213,984.46,16.8,64,22.14,0.0,1010.51,183.2
2019-08-10 07:40,50.6304483333333,-96.98079,5.3,7.1,206,984.49,16.6,65,22.13,0.0,1010.54,183.2
2019-08-10 07:50,50.6304466666667,-96.9807883333333,5.1,6.8,207,984.42,16.5,65,22.12,0.0,1010.49,183.2
2019-08-10 08:00,50.6304433333333,-96.980795,5.5,6.9,210,984.46,16.5,65,22.12,0.0,1010.53,252.3
2019-08-10 08:10,50.63046,-96.9807666666667,5.8,8.2,211,984.41,16.5,65,22.12,0.0,1010.49,252.3
2019-08-10 08:20,50.6304466666667,-96.9807733333333,6.4,8.6,208,984.38,16.5,65,22.11,0.0,1010.48,252.3
2019-08-10 08:30,50.6304466666667,-96.9807816666667,5.7,7.0,208,984.34,16.4,66,22.10,0.0,1010.45,252.3
2019-08-10 08:40,50.6304466666667,-96.980785,6.2,8.0,203,984.32,16.3,67,22.09,0.0,1010.44,252.3
2019-08-10 08:50,50.630445,-96.9807866666667,6.9,8.6,198,984.27,16.0,70,22.09,0.0,1010.41,252.3
2019-08-10 09:00,50.6304433333333,-96.9807866666667,6.6,8.2,200,984.18,15.6,71,22.09,0.0,1010.34,360.0
2019-08-10 09:10,50.6304433333333,-96.9807866666667,6.6,8.4,201,984.09,15.5,72,22.09,0.0,1010.26,360.0
2019-08-10 09:20,50.630445,-96.980785,6.4,8.4,205,984.03,15.4,73,22.07,0.0,1010.23,360.0
2019-08-10 09:30,50.630455,-96.9808183333333,7.0,9.3,211,983.99,15.5,72,22.06,0.0,1010.19,360.0
2019-08-10 09:40,50.63045,-96.9807766666667,6.5,8.4,210,983.82,15.5,73,22.05,0.0,1010.02,360.0
2019-08-10 09:50,50.6304533333333,-96.9807916666667,7.1,10.0,211,983.86,15.5,74,22.05,0.0,1010.05,360.0
2019-08-10 10:00,50.63045,-96.9807883333333,7.6,10.8,215,984.00,15.8,74,22.04,0.0,1010.18,270.0
2019-08-10 10:10,50.6304466666667,-96.98079,6.7,10.1,218,984.10,15.8,75,22.03,0.0,1010.29,270.0
2019-08-10 10:20,50.630445,-96.9807866666667,7.6,9.9,215,984.20,15.8,75,22.02,0.0,1010.40,270.0
2019-08-10 10:30,50.6304433333333,-96.9807866666667,7.1,9.5,211,984.20,15.7,76,22.00,0.0,1010.40,270.0
2019-08-10 10:40,50.6304433333333,-96.9807833333333,6.0,8.7,218,984.25,15.6,78,22.00,0.0,1010.48,270.0
2019-08-10 10:50,50.6304433333333,-96.9807833333333,6.1,7.9,232,984.49,15.3,78,22.00,0.0,1010.75,270.0
2019-08-10 11:00,50.63044,-96.980755,5.7,7.2,224,984.44,15.1,80,22.00,0.0,1010.72,90.0
2019-08-10 11:10,50.6304416666667,-96.98077,5.0,6.8,227,984.48,15.2,81,21.99,0.0,1010.76,90.0
2019-08-10 11:20,50.6304416666667,-96.980775,5.4,7.4,220,984.43,15.2,83,21.95,0.0,1010.70,90.0
2019-08-10 11:30,50.6304433333333,-96.98078,5.5,7.7,223,984.36,15.5,83,21.93,0.0,1010.62,90.0
2019-08-10 11:40,50.6304716666667,-96.9807866666667,5.7,8.1,225,984.30,15.8,82,21.91,0.0,1010.54,90.0
2019-08-10 11:50,50.6304566666667,-96.9807833333333,6.0,8.3,236,984.45,15.9,82,21.90,0.0,1010.68,90.0
2019-08-10 12:00,50.6304516666667,-96.9807766666667,6.2,7.7,232,984.67,16.0,82,21.88,0.0,1010.90,42.8
2019-08-10 12:10,50.6304483333333,-96.9807733333333,4.8,7.6,221,984.71,15.9,83,21.87,0.0,1010.94,42.8
2019-08-10 12:20,50.6304733333333,-96.9807516666667,4.6,6.2,222,984.79,16.0,83,21.85,0.0,1011.02,42.8
2019-08-10 12:30,50.6304516666667,-96.980765,3.4,4.9,224,984.97,16.3,82,21.84,0.0,1011.21,42.8
2019-08-10 12:40,50.63045,-96.9807783333333,2.6,3.8,219,985.19,16.8,81,21.83,0.0,1011.42,42.8
2019-08-10 12:50,50.6304533333333,-96.9807716666667,2.6,4.3,250,985.47,17.4,80,21.82,0.0,1011.68,42.8
2019-08-10 13:00,50.63045,-96.980775,2.1,3.7,229,985.53,17.8,80,21.82,0.0,1011.73,90.0
2019-08-10 13:10,50.63045,-96.980775,2.0,3.3,207,985.70,17.8,81,21.82,0.0,1011.90,90.0
2019-08-10 13:20,50.6304466666667,-96.9807733333333,2.1,6.2,299,985.72,18.1,81,21.79,0.0,1011.89,90.0
2019-08-10 13:30,50.6304483333333,-96.9807733333333,4.8,8.2,296,985.60,18.8,76,21.77,0.0,1011.72,90.0
2019-08-10 13:40,50.6304483333333,-96.9807733333333,4.6,6.9,304,985.79,18.9,75,21.76,0.0,1011.90,90.0
2019-08-10 13:50,50.63045,-96.9807733333333,6.1,9.5,301,985.91,18.9,75,21.76,0.0,1012.03,90.0
2019-08-10 14:00,50.6304516666667,-96.9807716666667,6.2,10.4,304,986.11,19.0,75,21.76,0.0,1012.24,323.4
2019-08-10 14:10,50.6304516666667,-96.9807716666667,6.3,10.3,301,986.29,19.2,75,21.78,0.0,1012.41,323.4
2019-08-10 14:20,50.6304633333333,-96.9807783333333,6.8,11.0,306,986.34,19.2,75,21.76,0.0,1012.44,323.4
2019-08-10 14:30,50.63046,-96.9807783333333,6.2,9.4,320,986.23,19.2,75,21.74,0.0,1012.31,323.4
2019-08-10 14:40,50.6304616666667,-96.9807783333333,5.8,8.4,316,986.22,19.2,76,21.74,0.0,1012.27,323.4
2019-08-10 14:50,50.6304583333333,-96.9807783333333,5.9,9.1,313,986.34,19.1,76,21.74,0.0,1012.38,323.4
2019-08-10 15:00,50.6304733333333,-96.9807816666667,5.4,7.7,321,986.26,19.1,76,21.74,0.0,1012.30,327.9
2019-08-10 15:10,50.630435,-96.98078,6.6,10.1,311,986.30,19.0,76,21.72,0.0,1012.33,327.9
2019-08-10 15:20,50.63045,-96.9807766666667,6.6,10.1,320,986.32,19.0,77,21.72,0.0,1012.32,327.9
2019-08-10 15:30,50.6304516666667,-96.980775,6.0,8.7,312,986.39,18.9,77,21.71,0.0,1012.39,327.9
2019-08-10 15:40,50.6304533333333,-96.980775,5.4,8.6,318,986.47,18.9,78,21.71,0.0,1012.47,327.9
2019-08-10 15:50,50.6304533333333,-96.980775,7.1,9.7,320,986.40,18.8,78,21.72,0.0,1012.40,327.9
2019-08-10 16:00,50.6304533333333,-96.980775,7.1,10.0,324,986.46,18.8,78,21.70,0.0,1012.46,90.0
2019-08-10 16:10,50.6304533333333,-96.980775,6.4,9.5,327,986.46,18.8,77,21.67,0.0,1012.46,90.0
2019-08-10 16:20,50.630455,-96.9807766666667,8.3,12.1,320,986.55,18.8,76,21.65,0.0,1012.54,90.0
2019-08-10 16:30,50.630475,-96.980805,7.3,12.3,326,986.61,19.1,76,21.65,0.0,1012.59,90.0
2019-08-10 16:40,50.6304616666667,-96.9807716666667,6.9,11.1,322,986.74,19.4,74,21.65,0.0,1012.72,90.0
2019-08-10 16:50,50.630455,-96.9807716666667,6.6,10.2,327,986.79,19.5,73,21.66,0.0,1012.77,90.0
2019-08-10 17:00,50.6304783333333,-96.9807916666667,7.2,10.4,352,986.71,19.7,74,21.67,0.0,1012.68,332.8
2019-08-10 17:10,50.6304483333333,-96.9807833333333,9.3,11.5,10,986.56,19.7,75,21.70,0.0,1012.52,332.8
2019-08-10 17:20,50.6304433333333,-96.9807633333333,9.4,11.8,16,986.54,19.6,77,21.72,0.0,1012.51,332.8
2019-08-10 17:30,50.63047,-96.9808233333333,9.4,11.2,7,986.71,19.5,78,21.73,0.0,1012.69,332.8
2019-08-10 17:40,50.6304533333333,-96.9807916666667,8.0,10.1,6,986.82,19.6,78,21.74,0.0,1012.81,332.8
2019-08-10 17:50,50.6304466666667,-96.98079,9.1,10.3,20,986.78,19.5,79,21.74,0.0,1012.77,332.8
2019-08-10 18:00,50.6304466666667,-96.9807883333333,9.4,11.5,22,986.61,19.4,80,21.72,0.0,1012.60,193.3
2019-08-10 18:10,50.6304316666667,-96.9807716666667,8.4,9.8,25,986.82,19.3,81,21.71,0.0,1012.81,193.3
2019-08-10 18:20,50.630445,-96.9807866666667,6.9,9.0,21,987.07,19.3,81,21.70,0.0,1013.07,193.3
2019-08-10 18:30,50.6304516666667,-96.9807866666667,7.0,8.7,10,987.11,19.3,81,21.68,0.0,1013.09,193.3
2019-08-10 18:40,50.630445,-96.9807866666667,7.3,9.3,0,987.25,19.3,82,21.67,0.0,1013.23,193.3
2019-08-10 18:50,50.6304383333333,-96.9807733333333,4.9,7.4,356,987.44,19.2,84,21.66,0.0,1013.42,193.3
2019-08-10 19:00,50.6304433333333,-96.9807666666667,5.0,6.9,320,987.72,19.1,84,21.66,0.0,1013.71,165.5
2019-08-10 19:10,50.6304466666667,-96.980755,5.0,6.7,321,987.77,19.0,84,21.65,0.0,1013.77,165.5
2019-08-10 19:20,50.6304516666667,-96.98077,5.8,8.1,313,987.87,19.0,84,21.65,0.0,1013.88,165.5
2019-08-10 19:30,50.6304283333333,-96.9807883333333,5.5,7.7,309,987.79,18.8,84,21.66,0.0,1013.80,165.5
2019-08-10 19:40,50.6304383333333,-96.9807766666667,5.3,7.0,315,987.76,18.9,85,21.66,0.0,1013.77,165.5
2019-08-10 19:50,50.6304383333333,-96.9807833333333,6.3,11.5,315,987.66,18.9,85,21.66,0.0,1013.67,165.5
2019-08-10 20:00,50.6304416666667,-96.980785,7.3,11.0,311,987.68,18.6,85,21.66,0.0,1013.72,360.0
2019-08-10 20:10,50.6304283333333,-96.98081,7.4,11.5,312,987.68,18.2,85,21.67,0.0,1013.72,360.0
2019-08-10 20:20,50.63044,-96.9807866666667,6.2,9.4,303,987.77,17.9,87,21.67,0.0,1013.83,360.0
2019-08-10 20:30,50.6304433333333,-96.9807816666667,5.4,8.2,303,987.78,17.8,89,21.67,0.0,1013.84,360.0
2019-08-10 20:40,50.6304433333333,-96.9807833333333,5.5,8.9,298,987.98,17.8,91,21.67,0.0,1014.06,360.0
2019-08-10 20:50,50.6304416666667,-96.980785,3.5,6.1,281,988.04,17.9,92,21.67,0.0,1014.12,360.0
2019-08-10 21:00,50.6304416666667,-96.9807883333333,4.8,7.9,290,987.98,17.9,90,21.67,0.0,1014.06,360.0
2019-08-10 21:10,50.6304416666667,-96.9807866666667,4.9,7.6,308,987.86,18.0,87,21.67,0.0,1013.93,360.0
2019-08-10 21:20,50.6304416666667,-96.9807866666667,4.9,7.0,312,987.70,18.1,82,21.66,0.0,1013.77,360.0
2019-08-10 21:30,50.6304416666667,-96.9807866666667,5.2,8.5,308,987.67,18.2,81,21.66,0.0,1013.74,360.0
2019-08-10 21:40,50.6304416666667,-96.980785,5.8,8.7,315,987.52,18.2,79,21.67,0.0,1013.58,360.0
2019-08-10 21:50,50.6304433333333,-96.9807766666667,3.8,6.5,324,987.54,18.3,78,21.67,0.0,1013.61,360.0
2019-08-10 22:00,50.6304516666667,-96.9807783333333,4.1,6.0,317,987.55,18.3,78,21.65,0.0,1013.64,317.2
2019-08-10 22:10,50.63045,-96.98078,3.4,5.8,299,987.68,18.2,79,21.66,0.0,1013.79,317.2
2019-08-10 22:20,50.6304483333333,-96.9807816666667,2.5,4.8,300,987.73,18.3,80,21.67,0.0,1013.84,317.2
2019-08-10 22:30,50.6304466666667,-96.9807816666667,2.8,4.3,294,987.69,18.3,80,21.67,0.0,1013.80,317.2
2019-08-10 22:40,50.630445,-96.98078,4.3,5.8,315,987.57,18.3,81,21.67,0.0,1013.67,317.2
2019-08-10 22:50,50.630445,-96.9807833333333,4.0,6.0,337,987.33,18.4,82,21.67,0.0,1013.43,317.2
2019-08-10 23:00,50.630445,-96.9807783333333,4.9,8.1,328,987.28,18.4,82,21.67,0.0,1013.37,0.0
2019-08-10 23:10,50.630445,-96.980785,6.2,8.4,310,987.48,18.1,82,21.68,0.0,1013.58,0.0
2019-08-10 23:20,50.630395,-96.9807533333333,6.3,8.7,320,987.49,18.1,83,21.67,0.0,1013.59,0.0
2019-08-10 23:30,50.6304216666667,-96.980775,4.7,6.3,329,987.59,18.3,85,21.67,0.0,1013.68,0.0
2019-08-10 23:40,50.6304316666667,-96.980785,4.5,7.0,338,987.64,18.4,85,21.66,0.0,1013.72,0.0
